Location: Albany
(35.0170°S, 117.8920°E)
Time: 20:15:36
(UTC+08:00)

A-11 Canister half - Pass Details

Date: 30 January 2021
Orbit: 1525 x 1684 km, 47.3° (Epoch: 03 March)

Event Time Altitude Azimuth Distance (km) Brightness Sun altitude
Rises 23:05:22 0° 334° (NNW) 4,902 - -34.5°
Reaches altitude 10° 23:08:42 10° 340° (NNW) 3,929 - -34.7°
Maximum altitude 23:18:06 45° 48° (NE) 2,181 - -35.4°
Exits shadow 23:22:13 32° 95° (E) 2,616 10.0 -35.6°
Drops below altitude 10° 23:27:32 10° 116° (ESE) 3,944 11.2 -35.9°
Sets 23:30:51 0° 121° (ESE) 4,922 11.8 -36.1°
